Showing default

COSMOS 1693, 16141

Orbit data source: Space-Track

COSMOS 1693, 16141 is a payload satellite owned by GUKOS (CIS) in LEO that was launched on Wed, 09 Oct 1985 UTC via a TSIKLON-3 launch vehicle from the Plesetsk Missile And Space Complex (PKMTR). Payload-class satellites include a variety of spacecraft equipped with specific instruments for various scientific and technological missions. These include communications satellites like Starlink; space stations such as the ISS; scientific satellites like the Hubble; Earth observation satellites from companies like Planet Labs, Umbra, and HawkEye 360; GPS; miniature CubeSats for education and research; and military/defense satellites.

Loading next visibility...
Identifier
16141, 1985-094D
Orbit
LEO
Country
Flag of CISCIS
Related business
Manufacturer
NPO PM
Mission
Defense Communications
Bus & Motor
STRELA-3, Unknown motor
Mass
225 kg wet, 225 kg dry
Launch date (UTC)
1985-10-09 (40 years ago)
Launch vehicle
TSIKLON-3
Launch site
Plesetsk Missile And Space Complex (PKMTR)
Object type
Payload
Rocket body
Debris
Shape & HBR
Cyl, 0.8 m
Radar Cross Section
1.257 m², Medium (>0.1 m² and < 1m²)

Expand to show TLE details & history
Last TLE update: 6 hours ago

TLE from 6 hours ago
0 COSMOS 1693
1 16141U 85094D   25260.94196166  .00000024  00000-0  70507-4 0  9995
2 16141  82.6066  66.0664 0013877 297.0103 179.7467 12.64357773843134
Epoch: 2025-09-17T22:36Z
TLE epoch observation values (Epoch: 2025-09-17T22:36:25.487Z)
Latitude
62.39751°
Longitude
-104.44807°
Altitude
1,426.478 km
Speed
7.149 km/s
True Right ascension
15h 27m 04s
True Declination
62° 16' 05"
Sunlit
Object was in daylight at epoch
Visualization orbit readout
Latitude
Unknown
Longitude
Unknown
Altitude
Unknown
Speed
Unknown
Apparent Right ascension
Unknown
Apparent Declination
Unknown
Sunlit
N/A
Visualization observer readout
Local Sidereal Time
21:24:07
Azimuth
Unknown
Elevation
Unknown
Doppler factor
Unknown
Orbital elements
Apogee altitude
1,413.123 km
Perigee altitude
1,391.529 km
Semi-major axis
7,780.463 km
Eccentricity
0.00139
Inclination
82.6066°
RAAN
66.0664°
Arg. of periapsis
297.0103°
True anomaly
179.7474°
Mean anomaly
179.7467°
Eccentric anomaly
179.74705°
Mean motion
3.16253 °/min
Orbital period
113.83 mins
BSTAR
0.000070507
Loading maneuver chart data...
Computing Atmospheric mass density...
Loading historical data...
Loading historical data...
Loading historical data...
Loading historical data...
Loading historical data...
Loading historical data...
Loading historical data...

Documentation

Showing up to 5 results
|